Weather in Karaul

Russia / Tambov Oblast     52°14′19″N   42°21′28″E
temp.,
°C
wind,
m/s
gust,
m/s
humid.,
%
clouds,
%
prec.,
mm/h
press.,
hPa
HPBL,
m
17 may, mon
mon1700:00+17e3375100 0.0 101328
03:00+16ese477464 0.0 101391
06:00+17se477316 0.0 1013124
09:00+23se5125523 0.0 1013508
12:00+26se61047100 0.0 1013853
15:00+27se7105297 0.0 10121209
18:00+23ese41263100 0.0 1012294
21:00+19e5146797 0.0 1012235
18 may, tue
tue1800:00+18ese5165527 0.0 1012302
03:00+15ese4115722 0.0 1011166
06:00+15ese311705 0.0 1011211
09:00+22ese511545 0.0 1011446
12:00+26ese6124940 0.0 10101078
15:00+27se8134971 0.0 10091189
18:00+24ese716535 0.0 1009447
21:00+22ese719454 0.0 1009461
19 may, wed
wed1900:00+16ese48585 0.0 1009110
03:00+15e36665 0.0 100984
06:00+15ese397888 0.0 1009208
09:00+20se4762100 0.0 1010402
12:00+25ese61053100 0.0 1009940
15:00+26ese71258100 0.0 10081534
18:00+24e4106763 0.0 1007283
21:00+19sse477042 0.0 1008140
20 may, thu
thu2000:00+15ese2494100 1.2 100869
03:00+14se259475 2.1 1007114
06:00+15ssw589586 0.0 1008538
09:00+17s5778100 0.0 1009901
12:00+19s7864100 0.1 10111537
15:00+18s6871100 0.4 10121248
18:00+17s5982100 0.4 1013620
21:00+13s3490100 0.6 101471
21 may, fri
fri2100:00+12s34931 0.0 101454
03:00+11sse33945 0.0 101548
06:00+13s3591100 0.0 1015163
09:00+17s4572100 0.0 1015695
12:00+20s5661100 0.1 10151456
15:00+21ssw586299 1.2 10141529
18:00+19s487384 1.0 1015311
21:00+15sw3485100 1.4 101665